Pasco, WA

10:16 PM PDT on October 23, 2017 (GMT -0700)
Tri-Cities

Weather History for KPSC - March, 2013

Change the Weather History Date:

Wednesday, March 27, 2013

  Actual Average Record
Temperature  
Mean Temperature 56 °F 49 °F  
Max Temperature 66 °F 62 °F 79 °F (2015)
Min Temperature 46 °F 36 °F 27 °F (1996)
Degree Days  
Heating Degree Days 9 16  
Month to date heating degree days 522 519  
Since 1 July heating degree days 4140 4402  
Cooling Degree Days 0 0  
Month to date cooling degree days 0 0  
Year to date cooling degree days 0 0  
Growing Degree Days 5 (Base 50)    
Moisture  
Dew Point 43 °F    
Average Humidity 69    
Maximum Humidity 93    
Minimum Humidity 44    
Precipitation  
Precipitation T in 0.03 in 0.34 in (1981)
Month to date precipitation 0.23 0.69  
Year to date precipitation 0.71 2.77  
Snow  
Snow 0.00 in - - ()
Snow Depth 0.00 in    
Sea Level Pressure  
Sea Level Pressure 29.95 in    
Wind  
Wind Speed 4 mph (ENE)    
Max Wind Speed 10 mph    
Max Gust Speed 13 mph    
Visibility 10 miles    
Events Rain    
T = Trace of Precipitation, MM = Missing Value Source: NWS Daily Summary

Daily Weather History Graph

Daily Weather History Graph

Search for Another Location

Airport or City:

Trip Planner

Search our weather history database for the weather conditions in past years. The results will help you decide how hot, cold, wet, or windy it might be!

Date:

Astronomy

Mar. 27, 2013 Rise Set
Actual Time 6:45 AM PDT 7:19 PM PDT
Civil Twilight 6:15 AM PDT 7:49 PM PDT
Nautical Twilight 5:39 AM PDT 8:25 PM PDT
Astronomical Twilight 5:02 AM PDT 9:02 PM PDT
Moon 8:13 PM PDT (3/27) 6:36 AM PDT (3/27)
Length of Visible Light 13h 34m
Length of Day
12h 33m
Full, 100% of the Moon is Illuminated
Mar 27
Full
Apr 2
Last Quarter
Apr 10
New
Apr 18
First Quarter
Apr 25
Full

Hourly Weather History & Observations

Time (PDT) Temp. Dew Point Humidity Pressure Visibility Wind Dir Wind Speed Gust Speed Precip Events Conditions
12:53 AM 46.9 °F 39.0 °F 74% 29.95 in 10.0 mi Calm Calm - N/A   Overcast
1:53 AM 46.9 °F 39.9 °F 77% 29.95 in 10.0 mi Calm Calm - N/A   Overcast
2:53 AM 48.9 °F 39.0 °F 69% 29.94 in 10.0 mi SE 4.6 mph - N/A   Overcast
3:53 AM 48.9 °F 41.0 °F 74% 29.94 in 10.0 mi SE 8.1 mph - 0.00 in Rain Light Rain
4:53 AM 46.9 °F 43.0 °F 86% 29.95 in 10.0 mi SE 4.6 mph - 0.00 in   Mostly Cloudy
5:53 AM 46.9 °F 44.1 °F 90% 29.95 in 10.0 mi SSE 6.9 mph - N/A   Overcast
6:53 AM 48.0 °F 44.1 °F 86% 29.96 in 10.0 mi ESE 5.8 mph - N/A   Overcast
7:53 AM 48.0 °F 45.0 °F 89% 29.97 in 10.0 mi SE 5.8 mph - 0.00 in   Overcast
8:53 AM 48.9 °F 45.0 °F 86% 29.98 in 10.0 mi SE 6.9 mph - 0.00 in   Overcast
9:53 AM 50.0 °F 46.0 °F 86% 29.98 in 10.0 mi ESE 3.5 mph - N/A   Overcast
10:53 AM 55.0 °F 46.0 °F 72% 29.98 in 10.0 mi ESE 4.6 mph - N/A   Mostly Cloudy
11:53 AM 55.9 °F 43.0 °F 62% 29.98 in 10.0 mi Variable 3.5 mph - N/A   Mostly Cloudy
12:53 PM 57.9 °F 43.0 °F 58% 29.98 in 10.0 mi Calm Calm - N/A   Clear
1:53 PM 61.0 °F 43.0 °F 52% 29.96 in 10.0 mi Calm Calm - N/A   Scattered Clouds
2:53 PM 63.0 °F 43.0 °F 48% 29.94 in 10.0 mi Variable 3.5 mph - N/A   Clear
3:53 PM 64.9 °F 44.1 °F 47% 29.92 in 10.0 mi North 4.6 mph - N/A   Partly Cloudy
4:53 PM 64.9 °F 43.0 °F 45% 29.92 in 10.0 mi North 8.1 mph - N/A   Partly Cloudy
5:53 PM 62.1 °F 43.0 °F 50% 29.92 in 10.0 mi NNE 6.9 mph - N/A   Clear
6:53 PM 57.0 °F 46.0 °F 67% 29.92 in 10.0 mi North 8.1 mph - N/A   Clear
7:53 PM 51.1 °F 44.1 °F 77% 29.94 in 10.0 mi North 8.1 mph - N/A   Partly Cloudy
8:53 PM 50.0 °F 43.0 °F 77% 29.96 in 10.0 mi North 6.9 mph - N/A   Scattered Clouds
9:53 PM 52.0 °F 44.1 °F 74% 29.97 in 10.0 mi NNW 6.9 mph - N/A   Overcast
10:53 PM 51.1 °F 44.1 °F 77% 29.97 in 10.0 mi WNW 5.8 mph - 0.00 in   Mostly Cloudy
11:53 PM 46.9 °F 42.1 °F 83% 29.99 in 10.0 mi WNW 3.5 mph - N/A   Scattered Clouds